Change the Weather History Date:

Sunday, September 9, 2012

  Actual Average Record
Temperature  
Mean Temperature 86 °F -  
Max Temperature 90 °F 89 °F 95 °F (2008)
Min Temperature 82 °F 82 °F 78 °F (2010)
Cooling Degree Days 21    
Growing Degree Days 36 (Base 50)    
Moisture  
Dew Point 76 °F    
Average Humidity 71    
Maximum Humidity 79    
Minimum Humidity 55    
Precipitation  
Precipitation 0.00 in - - ()
Sea Level Pressure  
Sea Level Pressure 29.94 in    
Wind  
Wind Speed 14 mph ()    
Max Wind Speed 21 mph    
Max Gust Speed -    
Visibility 9.2 miles    
Events      
Averages and records for this station are not official NWS values.
T = Trace of Precipitation, MM = Missing Value Source: Averaged Metar Reports

Daily Weather History Graph

Daily Weather History Graph

Search for Another Location

Airport or City:

Trip Planner

Search our weather history database for the weather conditions in past years. The results will help you decide how hot, cold, wet, or windy it might be!

Date:

Astronomy

Sep. 09, 2012 Rise Set
Actual Time 6:22 AM AST 6:37 PM AST
Civil Twilight 6:01 AM AST 6:59 PM AST
Nautical Twilight 5:36 AM AST 7:23 PM AST
Astronomical Twilight 5:11 AM AST 7:48 PM AST
Moon 12:33 AM AST (9/9) 1:36 PM AST (9/9)
Length of Visible Light 12h 57m
Length of Day
12h 15m
Last Quarter, 39% of the Moon is Illuminated
Sep 9
Last Quarter
Sep 15
New
Sep 22
First Quarter
Sep 29
Full
Oct 8
Last Quarter

Hourly Weather History & Observations

Time (AST) Temp. Heat Index Dew Point Humidity Pressure Visibility Wind Dir Wind Speed Gust Speed Precip Events Conditions
1:00 AM 84.2 °F 92.3 °F 75.2 °F 74% 29.95 in - SSE 10.4 mph - N/A   Unknown
2:00 AM 83 °F - 76 °F 73%  in - SSE 10.4 mph - -   Clear
2:00 AM 82.4 °F 89.5 °F 75.2 °F 79% 29.92 in - North - - N/A   Unknown
3:00 AM 82.4 °F 89.5 °F 75.2 °F 79% 29.92 in - North - - N/A   Unknown
4:00 AM 82.4 °F 89.5 °F 75.2 °F 79% 29.92 in - North - - N/A   Unknown
5:00 AM 83 °F - 75 °F 71%  in - SSE 10.4 mph - -   Clear
5:00 AM 82.4 °F 89.5 °F 75.2 °F 79% 29.92 in - North - - N/A   Unknown
7:00 AM 84.2 °F 94.1 °F 77.0 °F 79% 29.95 in - North - - N/A   Unknown
8:00 AM 86 °F - 77 °F 67% 29.99 in 19 mi East 18.4 mph - -   Partly Cloudy
8:00 AM 86.0 °F 96.9 °F 77.0 °F 74% 29.98 in 6.2 mi East 18.4 mph - N/A   Scattered Clouds
9:00 AM 86.0 °F 96.9 °F 77.0 °F 74% 29.98 in 6.2 mi East 19.6 mph - N/A   Scattered Clouds
10:00 AM 87.8 °F 99.7 °F 77.0 °F 70% 30.01 in 6.2 mi East 18.4 mph - N/A   Scattered Clouds
11:00 AM 89 °F - 77 °F 60% 30.02 in 19 mi East 20.7 mph - -   Partly Cloudy
11:00 AM 89.6 °F 102.2 °F 77.0 °F 66% 30.01 in 6.2 mi East 20.7 mph - N/A   Scattered Clouds
12:00 PM 87.8 °F 99.7 °F 77.0 °F 70% 29.98 in 6.2 mi SE 19.6 mph - N/A   Scattered Clouds
1:00 PM 89.6 °F 102.2 °F 77.0 °F 66% 29.95 in 6.2 mi ESE 19.6 mph - N/A   Scattered Clouds
2:00 PM 90 °F - 76 °F 55% 29.94 in 19 mi East 20.7 mph - -   Scattered Clouds
2:00 PM 89.6 °F 98.2 °F 73.4 °F 59% 29.92 in 6.2 mi East 20.7 mph - N/A   Scattered Clouds
3:00 PM 89.6 °F 102.2 °F 77.0 °F 66% 29.89 in 6.2 mi East 20.7 mph - N/A   Partly Cloudy
4:00 PM 89.6 °F 102.2 °F 77.0 °F 66% 29.89 in 6.2 mi East 20.7 mph - N/A   Partly Cloudy
5:00 PM 88 °F - 77 °F 62% 29.89 in 22 mi East 19.6 mph - -   Scattered Clouds
5:00 PM 87.8 °F 99.7 °F 77.0 °F 70% 29.89 in 6.2 mi East 19.6 mph - N/A   Partly Cloudy
6:00 PM 86.0 °F 96.9 °F 77.0 °F 74% 29.89 in - North - - N/A   Unknown
7:00 PM 84.2 °F 92.3 °F 75.2 °F 74% 29.89 in 6.2 mi East 15.0 mph - N/A   Partly Cloudy
8:00 PM 84 °F - 76 °F 70% 29.93 in 19 mi East 15.0 mph - -   Scattered Clouds
8:00 PM 84.2 °F 92.3 °F 75.2 °F 74% 29.92 in 6.2 mi East 16.1 mph - N/A   Partly Cloudy
9:00 PM 84.2 °F 92.3 °F 75.2 °F 74% 29.95 in - North - - N/A   Unknown
10:00 PM 84.2 °F 94.1 °F 77.0 °F 79% 29.98 in - North - - N/A   Unknown
11:00 PM 84.2 °F 94.1 °F 77.0 °F 79% 29.95 in 6.2 mi East 15.0 mph - N/A   Partly Cloudy